Regional Weather Roundup
Issued by NWS Sioux Falls, SD

Home | Current Version | Previous Version | Graphics & Text | Print | Product List | Glossary On
Versions: 1 2 3 4 5 6 7 8 9 10 11 12 13 14 15 16 17 18 19 20 21 22 23 24 25 26 27 28 29 30 31 32 33 34 35 36 37 38 39 40 41 42 43 44 45 46 47 48 49 50
000
ASUS43 KFSD 060910
RWRFSD

WEATHER ROUNDUP FOR SE SOUTH DAKOTA/SW MINNESOTA/NW IOWA
NATIONAL WEATHER SERVICE SIOUX FALLS SD
400 AM CDT MON JUL 06 2015

NOTE: "FAIR" INDICATES FEW OR NO CLOUDS BELOW 12,000 FEET WITH NO
SIGNIFICANT WEATHER AND OR OBSTRUCTIONS TO VISIBILITY.


SDZ038>040-050-052>070-061000-
SOUTHEAST SOUTH DAKOTA

CITY           SKY/WX    TMP DP  RH WIND       PRES   REMARKS
BROOKINGS      CLOUDY    68  64  88 NW10      29.89S
CHAMBERLAIN    RAIN      65  64  97 N16G22    29.91S
HURON          LGT RAIN  67  66  97 N10       29.89S
MADISON        HVY RAIN  66  66 100 N16       29.87F
MITCHELL       CLOUDY    68  66  93 NE21G30   29.81F
SIOUX FALLS    LGT RAIN  69  69 100 N14       29.81F
WINNER         LGT RAIN  66  64  93 N15       29.94S FOG
YANKTON        CLOUDY    70  66  88 W5        29.80F
$$

MNZ071-072-080-081-089-090-097-098-061000-
SOUTHWEST MINNESOTA

CITY           SKY/WX    TMP DP  RH WIND       PRES   REMARKS
FAIRMONT       CLOUDY    72  64  78 W8        29.81S
JACKSON        TSTM      72  70  94 NW8       29.84R
LUVERNE        CLOUDY    70  68  94 NW13G20   29.83R
MARSHALL       CLOUDY    70  64  83 N10       29.81S
PIPESTONE      HVY RAIN  68  66  94 NW14      29.87R
REDWOOD FALLS  RAIN      70  69  97 N3        29.79F FOG
TRACY          CLOUDY    70  68  94 N3        29.82F
WINDOM         RAIN      70  68  94 N3        29.81F
WORTHINGTON    CLOUDY    68  64  88 N6        29.84S
$$

IAZ001>003-012>014-020>022-031-032-NEZ013-014-SDZ071-061000-
NORTHWEST IOWA

CITY           SKY/WX    TMP DP  RH WIND       PRES   REMARKS
CHEROKEE       CLOUDY    71  69  93 W8G17     29.86R
DENISON          N/A    N/A N/A N/A W15G23    29.81R
ESTHERVILLE    CLOUDY    74  67  78 W12       29.81R
LE MARS        LGT RAIN  72  70  94 NE5       29.83F
ORANGE CITY    RAIN      70  68  94 NE3       29.83F
SHELDON        RAIN      70  70 100 NW5       29.83S
SIOUX CITY     CLOUDY    72  68  87 N6        29.82F
SPENCER        TSTM      70  67  90 S20G26    29.86R FOG
STORM LAKE     CLOUDY    68  66  94 S31G38    29.84R FOG
$$

ABBREVIATIONS USED IN REMARKS
   TC - TEMPERATURE IN CELSIUS
  WCI - WIND CHILL INDEX
   HX - HEAT INDEX
  VSB - VISIBILITY




USA.gov is the U.S. government's official web portal to all federal, state and local government web resources and services.